Back to catalog

STARLINK-3744

AliveCommunicationsVLEO
NORAD 52304·PAYLOAD·🇺🇸 United States

Launched Apr 21, 2022 from Cape Canaveral Space Force Station

Loading…

Next Passes (next 24 hours)

TLE

FreshSource: CelesTrak SupGP

Epoch: Sep 14, 2026, 13:13 UTC

1 52304C 22041AV  26257.55118056  .00140840  00000+0  41697-2 0  2578
2 52304  53.1591 309.8765 0001197  87.3623   1.2981 15.34256429    18

Track STARLINK-3744 in real time with AllMySat

Download on the App Store